When you browse on this site, cookies collect data to enhance your experience and personalize the content and advertising you see.
Visit our Privacy Policy to learn more. By continuing to use the site, you agree to this use of cookies and data.
  • In Hungary
  • List of Countries
  • For 7 days
  • Water Temperature
  • Weather Map
  • News
  • Weather Widgets
  • user-avatar
    Login

    Hourly Weather Edmond

    Today, 15 November, Friday

    Time Temperature Precipitation Wind Pressure Humidity
    00:00 +4°C° 0 mm 1 mps 740 mmHg 84%
    01:00 +4°C° 0 mm 1 mps 740 mmHg 84%
    02:00 +3°C° 0 mm 2 mps 740 mmHg 84%
    03:00 +3°C° 0 mm 2 mps 739 mmHg 84%
    04:00 +3°C° 0 mm 1 mps 739 mmHg 83%
    05:00 +3°C° 0 mm 1 mps 739 mmHg 82%
    06:00 +3°C° 0 mm 1 mps 739 mmHg 81%
    07:00 +3°C° 0 mm 2 mps 739 mmHg 76%
    08:00 +5°C° 0 mm 2 mps 739 mmHg 71%
    09:00 +6°C° 0 mm 2 mps 739 mmHg 66%
    10:00 +8°C° 0 mm 3 mps 739 mmHg 60%
    11:00 +10°C° 0 mm 3 mps 739 mmHg 54%
    12:00 +12°C° 0 mm 4 mps 739 mmHg 48%
    13:00 +12°C° 0 mm 4 mps 738 mmHg 47%
    14:00 +13°C° 0 mm 4 mps 737 mmHg 47%
    15:00 +13°C° 0 mm 4 mps 736 mmHg 46%
    16:00 +11°C° 0 mm 4 mps 736 mmHg 53%
    17:00 +10°C° 0 mm 4 mps 736 mmHg 60%
    18:00 +7°C° 0 mm 4 mps 736 mmHg 66%
    19:00 +6°C° 0 mm 4 mps 736 mmHg 69%
    20:00 +6°C° 0 mm 4 mps 736 mmHg 71%
    21:00 +5°C° 0 mm 4 mps 736 mmHg 74%
    22:00 +5°C° 0 mm 4 mps 736 mmHg 74%
    23:00 +5°C° 0 mm 4 mps 736 mmHg 74%

    Tomorrow, 16 November, Saturday

    Time Temperature Precipitation Wind Pressure Humidity
    00:00 +4°C° 0 mm 4 mps 736 mmHg 74%
    01:00 +3°C° 0 mm 5 mps 735 mmHg 74%
    02:00 +3°C° 0 mm 5 mps 735 mmHg 73%
    03:00 +3°C° 0 mm 5 mps 734 mmHg 72%
    04:00 +3°C° 0 mm 5 mps 734 mmHg 71%
    05:00 +3°C° 0 mm 5 mps 734 mmHg 71%
    06:00 +3°C° 0 mm 5 mps 734 mmHg 70%
    07:00 +3°C° 0 mm 6 mps 734 mmHg 67%
    08:00 +4°C° 0 mm 6 mps 734 mmHg 64%
    09:00 +5°C° 0 mm 7 mps 735 mmHg 61%
    10:00 +8°C° 0 mm 7 mps 734 mmHg 58%
    11:00 +10°C° 0 mm 7 mps 733 mmHg 55%
    12:00 +11°C° 0 mm 7 mps 733 mmHg 52%
    13:00 +12°C° 0 mm 7 mps 732 mmHg 52%
    14:00 +12°C° 0 mm 7 mps 731 mmHg 52%
    15:00 +14°C° 0 mm 7 mps 730 mmHg 52%
    16:00 +11°C° 0 mm 7 mps 730 mmHg 57%
    17:00 +10°C° 0 mm 6 mps 730 mmHg 62%
    18:00 +9°C° 0 mm 6 mps 730 mmHg 67%
    19:00 +8°C° 0 mm 6 mps 730 mmHg 68%
    20:00 +8°C° 0 mm 5 mps 730 mmHg 68%
    21:00 +8°C° 0 mm 5 mps 730 mmHg 68%
    22:00 +8°C° 0 mm 5 mps 730 mmHg 69%
    23:00 +7°C° 0 mm 4 mps 730 mmHg 69%

    Day after tomorrow, 17 November, Sunday

    Time Temperature Precipitation Wind Pressure Humidity
    00:00 +7°C° 0 mm 4 mps 730 mmHg 70%
    01:00 +8°C° 0 mm 3 mps 730 mmHg 71%
    02:00 +8°C° 0 mm 2 mps 730 mmHg 72%
    03:00 +8°C° 0 mm 2 mps 730 mmHg 74%
    04:00 +7°C° 0 mm 2 mps 730 mmHg 75%
    05:00 +7°C° 0 mm 2 mps 730 mmHg 76%
    06:00 +8°C° 0 mm 1 mps 730 mmHg 76%
    07:00 +8°C° 0 mm 3 mps 731 mmHg 74%
    08:00 +8°C° 0 mm 4 mps 731 mmHg 72%
    09:00 +9°C° 0 mm 5 mps 732 mmHg 70%
    10:00 +10°C° 0 mm 5 mps 731 mmHg 64%
    11:00 +13°C° 0 mm 5 mps 731 mmHg 57%
    12:00 +14°C° 0 mm 5 mps 731 mmHg 51%
    13:00 +14°C° 0 mm 5 mps 730 mmHg 50%
    14:00 +14°C° 0 mm 5 mps 730 mmHg 49%
    15:00 +14°C° 0 mm 4 mps 729 mmHg 49%
    16:00 +13°C° 0 mm 3 mps 729 mmHg 55%
    17:00 +12°C° 0 mm 2 mps 729 mmHg 61%
    18:00 +11°C° 0 mm 1 mps 729 mmHg 67%
    19:00 +10°C° 0 mm 1 mps 728 mmHg 67%
    20:00 +9°C° 0 mm 2 mps 728 mmHg 68%
    21:00 +9°C° 0 mm 3 mps 728 mmHg 68%
    22:00 +9°C° 0 mm 3 mps 728 mmHg 68%
    23:00 +8°C° 0 mm 4 mps 728 mmHg 69%

    18 November, Monday

    Time Temperature Precipitation Wind Pressure Humidity
    00:00 +7°C° 0 mm 4 mps 727 mmHg 69%
    01:00 +7°C° 0 mm 4 mps 727 mmHg 66%
    02:00 +8°C° 0 mm 5 mps 727 mmHg 64%
    03:00 +8°C° 0 mm 5 mps 726 mmHg 62%
    04:00 +8°C° 0 mm 5 mps 726 mmHg 62%
    05:00 +7°C° 0 mm 5 mps 726 mmHg 61%
    06:00 +7°C° 0 mm 4 mps 726 mmHg 61%
    07:00 +8°C° 0 mm 5 mps 726 mmHg 58%
    08:00 +10°C° 0 mm 5 mps 726 mmHg 55%
    09:00 +12°C° 0 mm 5 mps 726 mmHg 52%
    10:00 +14°C° 0 mm 6 mps 726 mmHg 51%
    11:00 +16°C° 0 mm 6 mps 726 mmHg 50%
    12:00 +18°C° 0 mm 7 mps 726 mmHg 49%
    13:00 +18°C° 0 mm 7 mps 726 mmHg 49%
    14:00 +18°C° 0 mm 8 mps 726 mmHg 48%
    15:00 +20°C° 0 mm 8 mps 726 mmHg 47%
    16:00 +17°C° 0 mm 7 mps 726 mmHg 52%
    17:00 +15°C° 0 mm 5 mps 727 mmHg 57%
    18:00 +14°C° 0 mm 4 mps 727 mmHg 61%
    19:00 +13°C° 0 mm 4 mps 728 mmHg 62%
    20:00 +12°C° 0 mm 4 mps 728 mmHg 63%
    21:00 +11°C° 0 mm 3 mps 729 mmHg 64%
    22:00 +10°C° 0 mm 3 mps 729 mmHg 65%
    23:00 +10°C° 0 mm 2 mps 729 mmHg 65%

    19 November, Tuesday

    Time Temperature Precipitation Wind Pressure Humidity
    00:00 +9°C° 0 mm 2 mps 729 mmHg 66%
    01:00 +9°C° 0 mm 2 mps 730 mmHg 66%
    02:00 +9°C° 0 mm 2 mps 730 mmHg 67%
    03:00 +9°C° 0 mm 2 mps 730 mmHg 67%
    04:00 +8°C° 0 mm 2 mps 730 mmHg 67%
    05:00 +8°C° 0 mm 2 mps 730 mmHg 68%
    06:00 +8°C° 0 mm 2 mps 730 mmHg 68%
    07:00 +9°C° 0 mm 3 mps 730 mmHg 65%
    08:00 +10°C° 0 mm 3 mps 731 mmHg 61%
    09:00 +11°C° 0 mm 4 mps 731 mmHg 57%
    10:00 +13°C° 0 mm 3 mps 731 mmHg 53%
    11:00 +16°C° 0 mm 3 mps 731 mmHg 49%
    12:00 +19°C° 0 mm 3 mps 731 mmHg 45%
    13:00 +19°C° 0 mm 3 mps 730 mmHg 44%
    14:00 +20°C° 0 mm 3 mps 729 mmHg 43%
    15:00 +21°C° 0 mm 3 mps 729 mmHg 42%
    16:00 +19°C° 0 mm 3 mps 729 mmHg 47%
    17:00 +17°C° 0 mm 3 mps 728 mmHg 53%
    18:00 +14°C° 0 mm 3 mps 728 mmHg 58%
    19:00 +14°C° 0 mm 4 mps 728 mmHg 60%
    20:00 +13°C° 0 mm 4 mps 728 mmHg 62%
    21:00 +13°C° 0 mm 5 mps 728 mmHg 64%
    22:00 +13°C° 0 mm 5 mps 728 mmHg 64%
    23:00 +13°C° 0 mm 6 mps 728 mmHg 63%

    20 November, Wednesday

    Time Temperature Precipitation Wind Pressure Humidity
    00:00 +11°C° 0 mm 6 mps 728 mmHg 63%
    01:00 +11°C° 0 mm 6 mps 728 mmHg 63%
    02:00 +11°C° 0 mm 6 mps 728 mmHg 63%
    03:00 +11°C° 0 mm 6 mps 728 mmHg 63%
    04:00 +10°C° 0 mm 6 mps 728 mmHg 64%
    05:00 +10°C° 0 mm 6 mps 728 mmHg 66%
    06:00 +10°C° 0 mm 6 mps 728 mmHg 67%
    07:00 +11°C° 0 mm 7 mps 728 mmHg 67%
    08:00 +12°C° 0 mm 7 mps 728 mmHg 66%
    09:00 +12°C° 0 mm 7 mps 729 mmHg 66%
    10:00 +15°C° 0 mm 7 mps 729 mmHg 63%
    11:00 +17°C° 0 mm 8 mps 729 mmHg 60%
    12:00 +18°C° 0 mm 8 mps 729 mmHg 57%
    13:00 +20°C° 0 mm 8 mps 728 mmHg 56%
    14:00 +20°C° 0 mm 8 mps 728 mmHg 56%
    15:00 +20°C° 0 mm 8 mps 728 mmHg 55%
    16:00 +18°C° 0 mm 8 mps 728 mmHg 58%
    17:00 +17°C° 0 mm 8 mps 728 mmHg 62%
    18:00 +16°C° 0 mm 7 mps 728 mmHg 65%
    19:00 +16°C° 0 mm 8 mps 728 mmHg 66%
    20:00 +16°C° 0 mm 8 mps 728 mmHg 68%
    21:00 +15°C° 0 mm 9 mps 728 mmHg 69%
    22:00 +15°C° 0 mm 9 mps 728 mmHg 71%
    23:00 +15°C° 0 mm 9 mps 728 mmHg 73%
    Show more